ALOS-2
Last updated on Mon Jun 22 2026 00:02:14 GMT+0000 (Coordinated Universal Time)
1 39766U 14029A 26172.53530381 .00000639 00000+0 92443-4 0 9996
2 39766 97.9218 269.6368 0001658 90.7283 269.4118 14.79467590652228
Next 0 passes for location: London (51.5072 / 0.1276)
No passes found over London.